Wind_Speed
19 19 19 17 17 19 18 18 19 18 17 19 21 21 20 21 21 19 19 19 18 18 18 19 20 22 22 5 26 15 16 14 13 12 13 11 13 17 13 10 19 17 18 26 31 29 29
20 18 19 21 22 21 20 21 18 19 18 19 20 20 21 22 23 22 21 20 19 18 18 19 21 21 14 10 14 4 12 13 13 10 9 12 15 19 19 13 15 23 20 24 25 23 23
21 21 23 22 20 21 23 22 21 20 20 20 20 20 23 25 24 22 23 23 20 19 18 19 21 19 14 35 17 14 13 15 14 13 15 18 20 23 17 8 29 23 15 17 13 13 7
22 22 23 24 24 22 23 23 23 21 21 21 20 22 24 26 26 24 24 25 22 18 17 16 17 14 14 21 15 16 21 20 20 15 15 13 17 18 12 17 16 7 8 11 4 9 11
24 25 25 24 26 25 24 24 24 23 23 24 22 22 24 25 29 28 24 25 21 18 17 14 15 11 14 7 16 4 3 11 20 14 18 12 12 7 9 3 4 4 10 16 9 8 10
24 25 25 26 27 24 26 29 27 24 25 27 23 22 23 25 27 27 22 21 13 10 9 3 6 7 13 13 6 3 3 10 10 9 13 15 8 3 1 3 11 8 10 10 11 10 16
26 29 30 29 26 26 25 25 24 26 25 23 24 21 23 23 24 21 18 15 9 4 3 10 11 14 14 8 5 8 7 7 9 12 7 13 5 10 12 11 11 12 13 15 12 10 13
25 26 27 25 25 24 25 22 21 23 24 24 20 22 21 22 22 13 11 5 11 9 13 23 32 42 46 31 22 29 17 12 10 9 7 7 19 14 14 13 15 18 19 20 17 12 13
27 27 24 23 20 23 22 21 21 23 21 21 20 17 18 18 16 8 4 8 12 14 7 19 30 26 35 24 32 47 25 23 13 12 12 15 7 20 17 18 18 18 16 13 13 4 4
27 26 30 29 25 25 32 24 21 22 21 19 16 16 18 18 11 4 2 1 8 18 4 7 8 9 16 13 9 26 33 22 10 17 13 16 13 19 16 21 17 17 14 17 18 2 4
23 23 25 30 25 25 22 21 27 24 19 18 16 16 15 15 10 5 5 5 11 9 5 6 8 4 10 15 2 3 18 30 21 17 8 15 6 7 10 8 9 11 11 14 4 2 4
21 21 22 23 23 21 20 20 19 20 22 19 16 14 13 12 9 5 10 9 6 1 8 5 8 6 8 14 6 5 1 16 10 14 16 14 17 6 7 7 12 2 3 2 3 3 7
20 22 22 21 19 22 21 18 19 20 16 15 15 13 14 13 14 7 5 4 1 5 9 1 2 11 15 12 12 9 8 6 6 4 8 9 18 15 9 7 8 2 4 2 2 4 6
19 19 21 18 13 16 18 19 19 22 16 13 13 14 15 17 11 9 8 4 8 6 10 17 19 17 16 15 14 14 11 7 13 7 1 7 4 14 16 15 8 8 7 4 6 4 3
20 19 18 19 18 17 16 15 16 19 16 11 12 15 16 8 4 7 8 4 3 5 4 16 20 8 9 8 6 13 13 11 11 16 7 4 6 2 7 18 14 7 9 11 8 7 2
20 20 20 20 19 19 18 16 16 16 19 13 10 12 23 11 9 9 5 8 7 10 15 13 6 9 8 12 12 5 11 4 10 1 5 4 2 7 9 8 12 10 5 6 5 4 10
24 22 20 19 17 18 17 15 15 13 13 7 6 6 14 9 12 12 6 7 11 20 20 9 7 6 9 8 13 10 8 4 8 4 4 6 0 5 3 1 6 7 11 4 4 2 3
20 16 16 18 19 17 13 16 15 12 8 8 5 2 8 15 5 5 7 4 8 17 22 10 5 8 4 9 6 8 8 6 2 9 3 3 1 2 3 6 7 4 14 14 7 7 8
20 21 19 19 19 18 18 17 14 14 10 7 4 10 13 12 4 7 5 11 16 17 16 6 4 3 12 2 5 6 6 8 9 3 1 5 4 2 6 0 11 6 2 6 8 8 14
20 20 20 20 20 19 17 17 14 13 12 10 4 3 7 15 6 5 7 10 14 20 16 15 8 7 16 6 12 8 9 8 13 4 7 4 1 2 1 3 4 10 13 7 7 4 7
23 24 25 25 25 24 22 19 16 15 14 16 7 5 6 2 5 8 8 9 13 8 9 11 4 7 7 5 13 14 8 4 6 5 4 1 1 3 8 7 11 12 13 15 8 9 8
24 23 23 22 22 22 24 24 21 19 16 22 6 4 5 12 14 7 7 15 15 14 5 8 10 13 7 8 15 13 9 5 4 6 5 5 3 5 6 8 9 12 14 13 11 11 10
23 21 20 19 18 18 18 20 24 24 23 20 23 15 7 7 4 3 4 6 10 14 15 15 11 5 9 12 15 3 10 4 3 2 4 4 3 4 3 7 8 6 8 11 14 12 7
22 21 21 21 20 19 18 18 20 27 30 33 22 13 6 7 7 9 11 15 15 16 12 7 2 2 4 12 21 11 11 8 6 7 7 3 2 1 3 5 2 5 8 11 6 13 12
23 24 23 23 22 20 18 18 18 23 31 37 34 23 11 7 12 14 15 13 17 21 12 13 16 10 11 7 3 5 3 2 8 16 14 10 4 1 2 2 6 9 5 5 7 8 10
24 24 26 25 25 24 23 21 19 19 23 35 41 40 21 4 13 16 11 16 7 10 8 10 3 10 8 2 2 1 2 3 3 4 16 11 6 4 1 3 3 2 11 15 11 3 9
25 25 24 22 21 21 24 25 22 22 21 23 19 32 22 8 19 16 10 9 7 7 5 7 1 3 3 2 1 2 3 4 4 4 6 9 5 9 5 3 5 7 1 5 3 2 12
25 24 23 19 18 19 21 24 24 24 25 26 24 20 35 13 13 14 19 18 17 16 2 2 5 1 1 2 3 3 2 3 3 9 7 5 6 4 3 2 6 17 8 5 4 16 18
24 27 22 21 22 21 20 22 26 25 26 28 23 24 19 19 8 18 31 32 30 20 12 5 1 3 9 2 3 2 2 2 2 3 3 1 5 4 6 4 4 17 16 15 17 13 15
Wind_Direction
294 290 295 295 298 300 303 295 297 300 297 303 308 305 305 305 302 296 295 297 304 309 313 314 316 316 323 292 255 240 277 303 293 286 262 228 222 236 244 241 255 249 253 260 261 260 255
295 296 296 291 291 289 291 294 296 297 303 306 304 304 306 304 303 300 297 295 302 308 309 308 308 306 313 267 298 180 249 258 274 277 265 227 234 240 266 252 244 259 263 260 269 266 272
304 298 291 286 289 292 285 284 290 290 293 301 308 303 305 307 310 300 297 296 299 304 304 303 302 300 274 260 278 239 230 233 238 237 265 251 249 254 276 276 255 266 277 279 272 279 279
303 301 298 297 287 283 287 289 280 289 293 292 296 304 309 309 309 303 296 296 295 299 294 297 295 281 253 287 297 261 234 235 233 242 252 261 259 285 280 279 292 307 288 269 266 280 275
299 300 297 295 295 287 279 285 286 284 289 292 294 298 308 309 307 306 299 299 302 299 274 284 283 242 263 296 277 299 292 253 248 248 248 258 282 265 274 280 318 270 260 274 282 269 252
299 297 298 298 291 295 283 277 282 284 289 287 293 296 303 307 308 313 308 315 329 270 275 242 254 247 263 259 286 244 255 268 236 233 242 237 262 219 194 173 221 222 253 260 255 255 268
295 296 296 296 302 282 285 286 281 279 282 288 285 294 305 306 307 313 323 351 15 343 250 217 224 228 270 245 300 289 293 231 250 223 216 203 201 218 215 227 240 266 268 267 280 296 310
300 291 296 295 287 293 279 280 283 282 281 281 276 291 306 306 306 305 313 313 4 320 298 270 253 250 251 257 283 261 256 295 218 216 212 239 232 220 230 242 237 240 249 262 277 279 295
301 299 290 294 288 289 279 280 281 290 293 278 276 288 303 313 315 312 330 302 344 308 280 284 250 247 248 235 244 260 256 256 253 220 224 216 202 216 220 232 237 245 248 256 258 288 320
304 302 296 299 296 298 292 299 296 289 289 283 272 283 300 322 303 327 7 84 7 338 308 269 216 259 198 211 248 249 238 228 240 243 236 241 231 242 225 230 225 240 236 254 262 66 270
304 311 300 294 292 292 291 291 289 288 287 287 280 282 299 318 276 284 60 68 346 319 327 236 158 166 182 186 198 190 224 215 229 234 202 233 246 252 262 255 228 232 229 243 137 139 297
317 310 304 304 302 286 287 289 289 279 279 281 278 286 290 315 266 277 323 321 318 115 247 256 137 179 153 208 263 115 153 196 227 236 255 259 283 256 253 284 283 352 279 48 97 153 251
312 307 306 307 303 291 296 284 298 295 283 274 271 272 280 299 257 201 334 294 179 225 300 17 307 177 195 201 225 214 184 197 192 168 228 266 257 270 279 294 286 96 184 196 232 229 250
305 308 305 306 299 288 295 291 292 283 294 271 272 273 283 292 262 253 315 226 222 228 241 351 342 321 191 214 209 213 174 188 225 249 223 184 268 216 229 218 215 212 194 177 220 210 250
302 302 302 301 300 298 295 291 300 282 286 255 271 287 291 278 256 182 273 243 238 233 310 351 337 319 279 226 217 189 204 208 215 201 204 215 233 318 229 211 187 212 211 212 262 287 206
298 300 302 302 298 293 296 296 283 284 273 248 288 297 281 250 237 204 223 247 261 292 319 359 311 318 335 343 351 198 183 237 219 319 211 270 298 287 302 162 225 203 165 199 209 241 268
303 296 296 299 301 298 280 284 289 276 269 294 275 283 294 185 199 196 226 228 258 263 273 284 318 319 333 355 321 341 318 49 7 166 198 351 231 284 62 263 196 198 227 198 161 214 255
303 298 300 290 295 296 283 283 292 279 249 223 249 277 334 199 169 199 229 244 230 268 284 255 290 262 262 8 333 341 8 293 59 304 37 339 355 296 248 302 15 256 206 223 225 210 221
288 292 293 290 286 281 276 276 273 248 229 204 245 256 257 194 189 228 260 252 248 254 265 282 265 294 325 286 311 284 268 289 98 84 4 337 7 346 318 50 29 341 305 270 216 187 240
291 290 290 288 283 280 272 268 257 248 239 219 273 296 242 212 234 296 248 267 265 258 250 251 266 269 284 274 258 269 261 309 70 84 53 57 348 355 310 297 196 287 312 312 339 244 237
291 288 286 282 279 275 270 260 249 237 223 212 224 245 265 284 235 236 250 266 287 296 299 209 238 213 249 282 287 247 290 29 114 85 11 348 270 302 296 295 299 285 291 296 275 225 253
296 292 288 283 279 273 263 255 243 230 214 212 215 221 279 279 268 289 280 258 266 276 217 279 272 291 324 274 270 322 354 22 25 24 26 5 310 337 313 311 304 285 284 284 295 294 297
295 295 292 287 282 278 281 252 240 226 212 215 223 227 279 272 295 302 229 275 273 261 262 232 235 273 305 285 305 193 245 263 244 58 348 345 359 22 277 350 326 282 247 266 279 258 273
290 291 290 284 278 274 268 258 242 223 215 222 214 214 228 262 257 250 280 299 299 287 272 302 160 183 270 315 323 269 243 240 213 236 218 243 304 342 280 345 286 248 315 315 103 47 27
288 290 289 285 276 268 261 253 247 229 215 222 222 204 198 250 251 268 267 271 297 303 309 307 227 229 278 308 265 302 327 274 226 225 219 198 192 313 186 224 283 308 24 42 3 59 36
291 290 292 285 275 263 253 248 241 237 229 222 225 218 212 233 236 244 267 276 275 285 310 282 332 167 191 112 356 242 258 287 282 239 204 184 176 165 262 228 246 47 19 3 2 84 355
293 292 286 282 278 262 249 240 235 225 219 211 224 222 203 220 251 234 229 248 256 285 262 300 285 67 150 133 185 212 250 257 266 303 162 176 175 208 231 268 283 27 356 87 141 54 27
292 289 285 282 267 270 244 235 228 220 215 215 225 225 209 233 243 237 242 252 266 274 238 265 76 89 4 167 188 235 239 263 322 230 162 155 167 187 192 234 255 341 69 52 277 29 24
286 286 275 273 269 269 244 233 225 221 215 212 214 229 226 221 251 247 242 247 252 265 269 246 144 150 213 182 235 297 327 339 161 299 101 93 192 172 175 179 118 66 89 47 47 46 20
Height
1521 1518 1519 1517 1514 1515 1513 1511 1509 1507 1503 1503 1501 1499 1497 1495 1494 1492 1491 1489 1489 1487 1484 1482 1480 1478 1474 1476 1460 1460 1460 1461 1462 1461 1461 1463 1465 1467 1466 1464 1465 1462 1459 1458 1454 1452 1450
1519 1517 1515 1513 1512 1510 1510 1510 1505 1504 1501 1499 1497 1496 1494 1491 1489 1488 1487 1485 1484 1483 1482 1479 1478 1475 1474 1472 1454 1454 1455 1455 1458 1459 1459 1460 1461 1462 1460 1458 1459 1457 1454 1450 1448 1446 1445
1515 1512 1511 1509 1508 1506 1505 1505 1503 1499 1498 1496 1495 1491 1490 1489 1485 1483 1483 1481 1479 1479 1478 1475 1474 1471 1469 1450 1453 1451 1452 1451 1454 1455 1456 1458 1459 1460 1457 1456 1452 1452 1452 1445 1442 1442 1444
1511 1510 1507 1505 1504 1501 1501 1500 1499 1495 1495 1494 1492 1489 1486 1484 1482 1479 1479 1477 1475 1474 1473 1473 1469 1469 1457 1446 1447 1444 1445 1445 1449 1451 1452 1453 1454 1453 1453 1452 1450 1453 1450 1451 1440 1439 1440
1507 1505 1504 1500 1501 1498 1496 1495 1495 1492 1490 1492 1488 1486 1483 1480 1479 1477 1474 1473 1470 1469 1468 1468 1466 1467 1450 1442 1442 1441 1441 1443 1445 1448 1450 1451 1452 1450 1451 1453 1460 1455 1460 1451 1445 1438 1438
1504 1502 1499 1497 1496 1493 1491 1493 1490 1486 1486 1488 1484 1483 1480 1477 1476 1475 1471 1468 1463 1461 1463 1461 1464 1469 1444 1436 1438 1440 1439 1440 1442 1444 1448 1450 1450 1450 1451 1457 1462 1462 1455 1450 1446 1440 1433
1498 1497 1494 1493 1490 1489 1488 1487 1485 1483 1482 1482 1481 1479 1477 1473 1474 1472 1469 1465 1465 1462 1460 1455 1451 1444 1437 1435 1436 1438 1439 1439 1441 1442 1444 1443 1452 1452 1452 1449 1447 1447 1446 1444 1437 1433 1434
1493 1492 1489 1488 1485 1486 1484 1482 1481 1480 1477 1479 1477 1476 1473 1472 1472 1469 1468 1467 1468 1469 1455 1447 1441 1436 1433 1436 1439 1429 1437 1440 1438 1442 1440 1444 1438 1441 1444 1445 1445 1444 1443 1441 1433 1430 1430
1488 1487 1486 1484 1481 1482 1479 1478 1476 1476 1474 1474 1474 1471 1473 1473 1467 1465 1465 1466 1467 1465 1460 1431 1426 1421 1423 1432 1427 1418 1435 1433 1437 1437 1436 1434 1426 1429 1436 1438 1439 1436 1438 1437 1435 1429 1430
1483 1483 1481 1480 1479 1477 1475 1474 1473 1473 1473 1472 1472 1471 1471 1468 1467 1463 1465 1465 1466 1463 1463 1428 1416 1412 1414 1421 1420 1414 1420 1433 1430 1432 1432 1425 1422 1422 1425 1430 1429 1434 1425 1427 1428 1436 1448
1478 1477 1476 1475 1473 1473 1471 1470 1470 1470 1470 1469 1470 1467 1467 1466 1464 1463 1465 1462 1464 1464 1468 1406 1407 1410 1410 1414 1411 1411 1414 1423 1422 1426 1428 1415 1416 1419 1420 1418 1417 1421 1418 1421 1425 1433 1438
1474 1474 1473 1470 1468 1468 1466 1466 1466 1466 1467 1467 1466 1465 1465 1464 1463 1463 1463 1463 1464 1466 1455 1411 1405 1409 1414 1413 1411 1411 1413 1418 1420 1423 1420 1415 1413 1414 1413 1410 1411 1408 1415 1418 1423 1432 1447
1471 1471 1469 1466 1464 1465 1464 1464 1464 1464 1462 1463 1463 1462 1462 1462 1460 1462 1462 1464 1467 1457 1416 1404 1408 1405 1408 1411 1411 1410 1414 1419 1423 1429 1427 1416 1412 1409 1411 1415 1410 1409 1420 1441 1449 1446 1441
1468 1466 1466 1464 1461 1461 1461 1461 1460 1461 1460 1460 1460 1460 1459 1459 1458 1461 1463 1463 1458 1424 1420 1409 1416 1404 1403 1401 1404 1404 1410 1418 1416 1415 1416 1421 1420 1406 1400 1406 1411 1410 1415 1437 1442 1444 1436
1465 1463 1461 1460 1458 1457 1457 1457 1457 1457 1458 1457 1457 1457 1455 1454 1456 1459 1463 1457 1442 1432 1425 1426 1417 1407 1399 1392 1396 1397 1401 1406 1405 1407 1414 1405 1402 1390 1390 1393 1399 1408 1413 1412 1423 1418 1428
1461 1458 1457 1456 1454 1454 1454 1453 1453 1454 1455 1456 1456 1456 1450 1452 1455 1459 1461 1450 1442 1436 1435 1435 1434 1418 1419 1412 1407 1393 1396 1396 1395 1395 1397 1396 1404 1389 1383 1386 1394 1398 1400 1419 1421 1435 1434
1455 1454 1452 1451 1450 1450 1450 1451 1451 1452 1453 1454 1456 1455 1445 1447 1453 1457 1454 1452 1443 1442 1440 1439 1439 1441 1431 1429 1421 1405 1396 1400 1398 1397 1397 1400 1403 1398 1389 1392 1395 1400 1404 1407 1409 1418 1428
1450 1449 1448 1447 1447 1447 1447 1448 1450 1450 1451 1454 1455 1455 1445 1447 1452 1449 1450 1443 1442 1441 1440 1443 1442 1437 1435 1429 1426 1422 1421 1408 1404 1402 1404 1404 1403 1406 1397 1388 1389 1389 1393 1400 1415 1416 1412
1446 1445 1444 1443 1444 1444 1445 1446 1447 1449 1451 1454 1453 1450 1445 1446 1452 1447 1442 1439 1438 1437 1436 1434 1436 1436 1431 1436 1436 1430 1425 1408 1401 1406 1410 1406 1408 1410 1400 1391 1398 1407 1393 1393 1397 1402 1408
1441 1440 1439 1438 1439 1440 1441 1442 1444 1447 1449 1452 1454 1450 1442 1443 1442 1442 1440 1438 1434 1431 1430 1430 1431 1432 1432 1429 1427 1423 1424 1413 1406 1407 1406 1407 1410 1414 1418 1415 1416 1412 1403 1400 1405 1409 1403
1435 1434 1433 1432 1432 1433 1435 1437 1440 1443 1447 1451 1451 1447 1441 1441 1440 1439 1439 1436 1432 1430 1426 1426 1428 1430 1433 1433 1425 1416 1408 1412 1407 1408 1408 1411 1415 1412 1409 1408 1404 1403 1400 1397 1401 1405 1409
1428 1427 1425 1425 1425 1426 1427 1430 1434 1438 1443 1446 1446 1444 1441 1438 1437 1441 1438 1434 1431 1428 1429 1425 1423 1420 1426 1429 1424 1419 1416 1415 1411 1408 1411 1414 1416 1412 1411 1406 1403 1401 1395 1392 1391 1391 1388
1422 1420 1420 1419 1419 1419 1419 1422 1426 1431 1438 1437 1440 1441 1442 1437 1435 1437 1435 1434 1427 1425 1423 1421 1422 1424 1420 1422 1424 1417 1417 1417 1415 1415 1418 1419 1419 1422 1418 1409 1409 1411 1400 1394 1389 1383 1386
1416 1415 1413 1413 1413 1413 1414 1415 1417 1422 1428 1431 1434 1440 1443 1436 1435 1433 1431 1430 1428 1424 1423 1420 1423 1425 1424 1423 1420 1418 1416 1410 1409 1414 1416 1420 1420 1424 1426 1418 1426 1397 1389 1386 1387 1395 1396
1409 1408 1406 1406 1406 1407 1408 1410 1412 1414 1420 1423 1429 1435 1436 1433 1431 1429 1429 1428 1427 1425 1422 1419 1417 1417 1423 1424 1424 1416 1414 1411 1407 1406 1408 1413 1421 1432 1430 1426 1409 1395 1394 1398 1403 1403 1401
1401 1400 1399 1398 1398 1399 1401 1403 1406 1409 1411 1416 1419 1426 1431 1432 1422 1426 1428 1427 1429 1428 1423 1417 1417 1419 1424 1427 1427 1423 1423 1409 1400 1395 1396 1409 1416 1426 1427 1422 1419 1399 1398 1394 1392 1404 1403
1393 1392 1391 1390 1389 1390 1392 1395 1399 1404 1407 1411 1414 1420 1424 1425 1419 1425 1424 1425 1426 1424 1423 1419 1420 1420 1421 1425 1430 1428 1423 1407 1409 1399 1403 1410 1417 1422 1425 1424 1411 1405 1401 1397 1405 1416 1408
1385 1384 1383 1382 1383 1383 1384 1388 1392 1397 1403 1406 1410 1414 1418 1418 1417 1418 1419 1420 1421 1422 1424 1421 1422 1423 1425 1426 1427 1423 1422 1407 1405 1400 1400 1408 1416 1422 1425 1421 1419 1404 1402 1409 1416 1410 1409
1377 1376 1375 1375 1376 1377 1378 1381 1385 1391 1397 1402 1408 1410 1415 1417 1414 1412 1413 1413 1416 1419 1421 1419 1419 1420 1420 1422 1419 1415 1419 1413 1412 1405 1400 1409 1403 1413 1411 1412 1414 1410 1412 1414 1414 1414 1412